Powrót do katalogu

CZ-6A DEB

AktywnyPO
NORAD 61402·DEBRIS·🇨🇳 China

Wystrzelony Aug 6, 2024 z Taiyuan Satellite Launch Center

Loading…

Następne Przeloty (najbliższe 24 godziny)

TLE

ŚwieżeSource: Space-Track

Epoka: Sep 13, 2026, 04:45 UTC

1 61402U 24140XT  26256.19800812  .00017938  00000-0  47639-3 0  9994
2 61402  89.7035 324.0041 0159486  39.0872 322.1771 15.26171238110598

Śledź CZ-6A DEB w czasie rzeczywistym z AllMySat

Download on the App Store